KE6LRO Weather Reports


Display with metric or nautical units.
time (UTC)temp
F
wind
direction
speed
MPH
gust
MPH
rain 1hr
in
rain 24hr
in
rain mn
in
humidity
%
barometer
mb
20260502193704 72 354 3.0 5.0 0.00 0.00 0.00 25 1020.8
20260502193202 71 10 7.0 10.0 0.00 0.00 0.00 24 1020.7
20260502192656 71 3 2.0 6.0 0.00 0.00 0.00 26 1020.8
20260502192154 70 339 1.0 5.0 0.00 0.00 0.00 28 1020.9
20260502191651 69 338 5.0 7.0 0.00 0.00 0.00 30 1020.9
20260502191149 71 351 5.0 7.0 0.00 0.00 0.00 25 1021.1
20260502190646 69 359 2.0 3.0 0.00 0.00 0.00 29 1021.1
20260502190139 71 347 4.0 9.0 0.00 0.00 0.00 29 1021.2
20260502185638 71 325 3.0 6.0 0.00 0.00 0.00 32 1021.4
20260502185135 70 325 2.0 7.0 0.00 0.00 0.00 31 1021.1
20260502184631 70 324 3.0 3.0 0.00 0.00 0.00 31 1021.5
20260502184127 70 294 5.0 8.0 0.00 0.00 0.00 28 1021.4
20260502183623 70 344 0.0 8.0 0.00 0.00 0.00 30 1021.4
20260502183120 69 335 3.0 5.0 0.00 0.00 0.00 32 1021.7
20260502182615 68 301 4.0 7.0 0.00 0.00 0.00 34 1021.6
20260502182111 68 329 4.0 5.0 0.00 0.00 0.00 35 1021.8
20260502181609 67 336 1.0 3.0 0.00 0.00 0.00 39 1021.8
20260502181108 66 333 1.0 6.0 0.00 0.00 0.00 40 1021.8
20260502180604 66 313 3.0 8.0 0.00 0.00 0.00 38 1022.1
20260502170517 62 326 3.0 6.0 0.00 0.00 0.00 41 1022.5
20260502163956 59 332 0.0 3.0 0.00 0.00 0.00 44 1022.8
20260502163451 59 334 2.0 3.0 0.00 0.00 0.00 46 1022.7
20260502162949 58 337 1.0 2.0 0.00 0.00 0.00 49 1022.6
20260502162446 57 312 5.0 7.0 0.00 0.00 0.00 48 1022.7
20260502161943 57 332 0.0 5.0 0.00 0.00 0.00 49 1022.8
20260502161439 56 340 1.0 3.0 0.00 0.00 0.00 55 1023.1
20260502160937 55 324 3.0 3.0 0.00 0.00 0.00 52 1022.8
20260502160435 54 344 0.0 3.0 0.00 0.00 0.00 54 1023.2
20260502151918 49 352 0.0 0.0 0.00 0.00 0.00 63 1023.3
20260502151415 47 353 0.0 0.0 0.00 0.00 0.00 71 1023.3
20260502150912 47 356 0.0 1.0 0.00 0.00 0.00 68 1023.4
20260502150408 48 338 0.0 1.0 0.00 0.00 0.00 66 1023.4
20260502130255 30 342 0.0 0.0 0.00 0.00 0.00 99 1023.6
20260502123740 30 342 0.0 0.0 0.00 0.00 0.00 99 1023.6
20260502123237 29 342 0.0 0.0 0.00 0.00 0.00 99 1023.5
20260502122734 29 342 0.0 0.0 0.00 0.00 0.00 99 1023.4
20260502122230 29 342 0.0 0.0 0.00 0.00 0.00 99 1023.4
20260502121728 29 342 0.0 0.0 0.00 0.00 0.00 99 1023.4
20260502121226 29 342 0.0 0.0 0.00 0.00 0.00 99 1023.4
20260502120722 29 342 0.0 0.0 0.00 0.00 0.00 99 1023.4
20260502120219 29 342 0.0 0.0 0.00 0.00 0.00 99 1023.4
20260502115717 29 342 0.0 0.0 0.00 0.00 0.00 99 1023.4
20260502115213 30 342 0.0 0.0 0.00 0.00 0.00 99 1023.5
20260502114709 30 342 0.0 0.0 0.00 0.00 0.00 98 1023.4
20260502114207 30 342 0.0 0.0 0.00 0.00 0.00 98 1023.4
20260502113703 30 342 0.0 0.0 0.00 0.00 0.00 98 1023.5
20260502113201 30 341 0.0 0.0 0.00 0.00 0.00 98 1023.3
20260502112659 30 342 0.0 0.0 0.00 0.00 0.00 98 1023.4
20260502112156 30 342 0.0 0.0 0.00 0.00 0.00 98 1023.4
20260502111654 30 342 0.0 0.0 0.00 0.00 0.00 98 1023.4
20260502111151 30 342 0.0 0.0 0.00 0.00 0.00 98 1023.4
20260502110649 30 342 0.0 0.0 0.00 0.00 0.00 98 1023.4
20260502110146 30 341 0.0 0.0 0.00 0.00 0.00 98 1023.3
20260502105643 30 342 0.0 0.0 0.00 0.00 0.00 98 1023.4
20260502105140 30 342 0.0 0.0 0.00 0.00 0.00 98 1023.3
20260502104637 31 342 0.0 0.0 0.00 0.00 0.00 98 1023.3
20260502104135 31 342 0.0 0.0 0.00 0.00 0.00 98 1023.5
20260502103632 31 342 0.0 0.0 0.00 0.00 0.00 98 1023.3
20260502103130 31 342 0.0 0.0 0.00 0.00 0.00 97 1023.2
20260502102627 31 342 0.0 0.0 0.00 0.00 0.00 97 1023.1
20260502102123 31 342 0.0 0.0 0.00 0.00 0.00 97 1023.3
20260502101621 31 342 0.0 0.0 0.00 0.00 0.00 97 1023.2
20260502101120 32 341 0.0 0.0 0.00 0.00 0.00 97 1023.3
20260502100618 32 341 0.0 0.0 0.00 0.00 0.00 97 1023.0
20260502100116 32 342 0.0 0.0 0.00 0.00 0.00 97 1023.3
20260502091049 33 342 0.0 0.0 0.00 0.00 0.00 95 1023.0
20260502090546 33 342 0.0 0.0 0.00 0.00 0.00 95 1023.0
20260502071446 36 342 0.0 0.0 0.00 0.00 0.00 91 1023.2
20260502070944 36 342 0.0 0.0 0.00 0.00 0.00 90 1023.1
20260502070442 36 341 0.0 0.0 0.00 0.00 0.00 90 1023.0
20260502065940 37 341 0.0 0.0 0.00 0.00 0.00 90 1023.0
20260502065439 37 341 0.0 0.0 0.00 0.00 0.00 90 1023.0
20260502064936 37 342 0.0 0.0 0.00 0.00 0.00 89 1023.1
20260502064434 37 340 0.0 0.0 0.00 0.00 0.00 89 1022.7
20260502063931 38 340 0.0 0.0 0.00 0.00 0.00 88 1022.7
20260502063428 38 340 0.0 0.0 0.00 0.00 0.00 88 1022.8
20260502062926 38 340 0.0 0.0 0.00 0.00 0.00 87 1022.7
20260502062423 38 339 0.0 0.0 0.00 0.00 0.00 87 1022.7
20260502061922 38 342 0.0 0.0 0.00 0.00 0.00 88 1022.6
20260502061419 38 342 0.0 0.0 0.00 0.00 0.00 88 1022.7
20260502060915 38 342 0.0 0.0 0.00 0.00 0.00 88 1022.6
20260502060410 39 342 0.0 0.0 0.00 0.00 0.00 87 1022.5
20260502055908 39 342 0.0 0.0 0.00 0.00 0.00 87 1022.5
20260502055405 39 342 0.0 0.0 0.00 0.00 0.00 86 1022.4
20260502054900 39 342 0.0 0.0 0.00 0.00 0.00 86 1022.5
20260502054357 40 342 0.0 0.0 0.00 0.00 0.00 85 1022.5
20260502053855 40 342 0.0 0.0 0.00 0.00 0.00 85 1022.4
20260502053352 40 342 0.0 0.0 0.00 0.00 0.00 85 1022.6
20260502052849 41 342 0.0 0.0 0.00 0.00 0.00 85 1022.2
20260502052347 41 342 0.0 0.0 0.00 0.00 0.00 83 1022.3
20260502051844 41 342 0.0 0.0 0.00 0.00 0.00 85 1022.4
20260502051343 41 342 0.0 0.0 0.00 0.00 0.00 85 1022.3
20260502050838 41 342 0.0 0.0 0.00 0.00 0.00 83 1022.2
20260502050335 42 342 0.0 0.0 0.00 0.00 0.00 83 1022.3
20260502045832 42 342 0.0 0.0 0.00 0.00 0.00 83 1022.2
20260502045329 42 342 0.0 0.0 0.00 0.00 0.00 83 1022.3
20260502044826 42 342 0.0 0.0 0.00 0.00 0.00 81 1022.2
20260502044322 43 342 0.0 0.0 0.00 0.00 0.00 81 1022.2
20260502043819 43 342 0.0 0.0 0.00 0.00 0.00 82 1021.8
20260502043317 43 342 0.0 0.0 0.00 0.00 0.00 81 1022.1
20260502042816 43 342 0.0 0.0 0.00 0.00 0.00 81 1021.8
20260502042314 43 342 0.0 0.0 0.00 0.00 0.00 81 1022.1
20260502041811 43 342 0.0 0.0 0.00 0.00 0.00 80 1022.0
20260502041308 44 342 0.0 0.0 0.00 0.00 0.00 79 1022.1
20260502040805 44 342 0.0 0.0 0.00 0.00 0.00 79 1021.8
20260502040302 44 342 0.0 0.0 0.00 0.00 0.00 78 1021.7
20260502035758 45 342 0.0 0.0 0.00 0.00 0.00 78 1022.0
20260502035255 45 342 0.0 0.0 0.00 0.00 0.00 79 1021.7
20260502034752 45 343 0.0 0.0 0.00 0.00 0.00 76 1021.6
20260502034251 46 343 0.0 0.0 0.00 0.00 0.00 75 1021.6
20260502033749 46 341 0.0 0.0 0.00 0.00 0.00 73 1021.3
20260502033246 46 340 0.0 0.0 0.00 0.00 0.00 72 1021.5
20260502032742 47 336 0.0 0.0 0.00 0.00 0.00 72 1021.4
20260502032238 47 338 0.0 0.0 0.00 0.00 0.00 71 1021.3
20260502031737 48 338 0.0 0.0 0.00 0.00 0.00 69 1021.3
20260502031234 48 338 0.0 0.0 0.00 0.00 0.00 68 1021.3
20260502030733 49 327 0.0 0.0 0.00 0.00 0.00 66 1021.3
20260502030230 49 335 0.0 0.0 0.00 0.00 0.00 69 1021.1
20260502025727 50 328 0.0 1.0 0.00 0.00 0.00 65 1020.9
20260502025225 50 326 0.0 1.0 0.00 0.00 0.00 65 1020.7
20260502024723 51 334 0.0 0.0 0.00 0.00 0.00 64 1020.8
20260502024221 52 319 1.0 1.0 0.00 0.00 0.00 67 1020.8
20260502023719 52 323 0.0 0.0 0.00 0.00 0.00 65 1020.7
20260502023216 53 341 0.0 0.0 0.00 0.00 0.00 62 1020.7
20260502022713 53 337 0.0 0.0 0.00 0.00 0.00 63 1020.4
20260502022209 54 330 0.0 0.0 0.00 0.00 0.00 61 1020.5
20260502021707 55 329 0.0 0.0 0.00 0.00 0.00 63 1020.5
20260502021204 55 329 0.0 0.0 0.00 0.00 0.00 60 1020.4
20260502020701 56 323 1.0 2.0 0.00 0.00 0.00 59 1020.4
20260502020158 57 333 0.0 0.0 0.00 0.00 0.00 59 1020.3
20260502015656 57 311 1.0 2.0 0.00 0.00 0.00 56 1020.3
20260502015152 57 325 0.0 0.0 0.00 0.00 0.00 53 1020.4
20260502014650 58 325 0.0 1.0 0.00 0.00 0.00 56 1020.3
20260502014146 59 322 0.0 0.0 0.00 0.00 0.00 56 1020.3
20260502013642 60 303 0.0 0.0 0.00 0.00 0.00 51 1020.3
20260502013138 61 328 0.0 0.0 0.00 0.00 0.00 50 1020.5
20260502012635 61 324 0.0 0.0 0.00 0.00 0.00 45 1020.3
20260502012133 63 313 2.0 3.0 0.00 0.00 0.00 51 1020.3
20260502011630 63 327 0.0 2.0 0.00 0.00 0.00 38 1020.3
20260502011125 66 301 2.0 3.0 0.00 0.00 0.00 46 1020.4
20260502010623 68 318 0.0 0.0 0.00 0.00 0.00 38 1020.4
20260502010120 68 321 2.0 2.0 0.00 0.00 0.00 40 1020.4
20260502005618 70 323 0.0 1.0 0.00 0.00 0.00 37 1020.4
20260502005115 71 349 0.0 0.0 0.00 0.00 0.00 24 1020.5
20260502004610 70 309 2.0 3.0 0.00 0.00 0.00 29 1020.3
20260502004108 71 9 4.0 6.0 0.00 0.00 0.00 24 1020.3
20260502003606 72 331 0.0 2.0 0.00 0.00 0.00 30 1020.3
20260502003102 73 308 2.0 3.0 0.00 0.00 0.00 27 1020.3
20260502002558 73 323 0.0 1.0 0.00 0.00 0.00 26 1020.1
20260502002055 73 5 7.0 8.0 0.00 0.00 0.00 23 1020.3
20260502001554 74 358 3.0 5.0 0.00 0.00 0.00 23 1019.9
20260502001050 74 326 0.0 3.0 0.00 0.00 0.00 25 1020.1
20260502000549 73 334 2.0 5.0 0.00 0.00 0.00 23 1020.2
20260502000045 73 331 2.0 3.0 0.00 0.00 0.00 22 1019.9
20260501235541 74 326 1.0 7.0 0.00 0.00 0.00 22 1020.2
20260501235038 73 336 3.0 5.0 0.00 0.00 0.00 22 1019.9
20260501234533 74 343 0.0 0.0 0.00 0.00 0.00 20 1020.2
20260501234031 74 335 1.0 1.0 0.00 0.00 0.00 19 1020.3
20260501233529 73 329 1.0 2.0 0.00 0.00 0.00 20 1020.2
20260501233026 73 261 3.0 5.0 0.00 0.00 0.00 23 1020.1
20260501232522 74 278 3.0 6.0 0.00 0.00 0.00 20 1020.2
20260501232019 75 337 1.0 3.0 0.00 0.00 0.00 20 1020.2
20260501231517 75 348 0.0 6.0 0.00 0.00 0.00 19 1020.2
20260501231015 74 323 2.0 8.0 0.00 0.00 0.00 20 1020.5
20260501230514 75 299 2.0 2.0 0.00 0.00 0.00 21 1020.3
20260501230011 74 297 3.0 5.0 0.00 0.00 0.00 20 1020.3
20260501225509 73 1 1.0 10.0 0.00 0.00 0.00 20 1020.4
20260501225004 73 38 5.0 8.0 0.00 0.00 0.00 21 1020.4
20260501224502 73 357 5.0 8.0 0.00 0.00 0.00 22 1020.5
20260501223959 74 323 1.0 3.0 0.00 0.00 0.00 21 1020.4
20260501223455 73 324 1.0 6.0 0.00 0.00 0.00 22 1020.6
20260501222950 73 300 3.0 5.0 0.00 0.00 0.00 21 1020.5
20260501222448 74 315 1.0 2.0 0.00 0.00 0.00 21 1020.6
20260501221944 76 323 2.0 5.0 0.00 0.00 0.00 20 1020.6
20260501221442 75 302 1.0 9.0 0.00 0.00 0.00 22 1020.8
20260501220939 74 356 3.0 6.0 0.00 0.00 0.00 21 1020.6
20260501220437 75 329 1.0 6.0 0.00 0.00 0.00 21 1020.6
20260501215932 74 329 0.0 0.0 0.00 0.00 0.00 21 1020.9
20260501215430 72 12 0.0 2.0 0.00 0.00 0.00 23 1020.8
20260501214925 73 244 4.0 6.0 0.00 0.00 0.00 20 1021.1
20260501214420 73 319 4.0 7.0 0.00 0.00 0.00 19 1021.1
20260501213916 74 302 5.0 7.0 0.00 0.00 0.00 19 1021.2
20260501213414 73 348 1.0 6.0 0.00 0.00 0.00 23 1021.3
20260501212908 72 310 5.0 11.0 0.00 0.00 0.00 19 1021.4
20260501212406 74 23 5.0 6.0 0.00 0.00 0.00 20 1021.1
20260501211902 73 316 3.0 8.0 0.00 0.00 0.00 19 1021.4
20260501211400 74 347 4.0 5.0 0.00 0.00 0.00 18 1021.2
20260501210857 73 24 4.0 5.0 0.00 0.00 0.00 20 1021.3
20260501210354 71 330 0.0 6.0 0.00 0.00 0.00 22 1021.3
20260501205850 71 354 3.0 3.0 0.00 0.00 0.00 23 1021.5
20260501205348 73 342 3.0 7.0 0.00 0.00 0.00 23 1021.6
20260501204844 72 359 5.0 9.0 0.00 0.00 0.00 24 1021.5
20260501204341 71 340 0.0 3.0 0.00 0.00 0.00 22 1021.5
20260501203838 71 348 4.0 6.0 0.00 0.00 0.00 23 1021.7
20260501203335 72 338 2.0 3.0 0.00 0.00 0.00 24 1021.7
20260501202832 70 351 1.0 3.0 0.00 0.00 0.00 24 1021.7
20260501202329 71 14 2.0 5.0 0.00 0.00 0.00 24 1022.0
20260501201826 73 356 4.0 6.0 0.00 0.00 0.00 23 1021.5
20260501201322 72 309 2.0 3.0 0.00 0.00 0.00 24 1022.1
20260501200818 70 0 1.0 5.0 0.00 0.00 0.00 26 1021.8
20260501200316 71 354 1.0 2.0 0.00 0.00 0.00 27 1022.0
20260501195814 70 357 3.0 6.0 0.00 0.00 0.00 28 1022.1
20260501195309 71 335 3.0 5.0 0.00 0.00 0.00 27 1022.3
20260501194805 71 340 3.0 7.0 0.00 0.00 0.00 28 1022.3
20260501194301 71 344 1.0 2.0 0.00 0.00 0.00 31 1022.4